Tracking 23726 objects as of 24-Sep-2021
HD Live streaming from Space Station
objects crossing your sky now

TIANHUI 1-04

Track TIANHUI 1-04 now!
10-day predictions


NORAD ID: 49049
Int'l Code: 2021-067A
Perigee: 501.7 km
Apogee: 503.8 km
Inclination: 97.5 °
Period: 94.5 minutes
Semi major axis: 6873 km
RCS: Unknown
Launch date: July 29, 2021
Source: People's Republic of China (PRC)
Launch site: Jiuquan Satellite Launch Center, China (JSC)
aabbcc
Your satellite tracking list
Your tracking list is empty




NASA's NSSDC Master Catalog

Two Line Element Set (TLE):
1 49049U 21067A   21267.16156902  .00001048  00000-0  47070-4 0  9995
2 49049  97.4695 339.0967 0001529  83.1839 335.6213 15.23379947  8667
Source of the keplerian elements: AFSPC